This demonstration page uses our WeatherBlox Daily Observations layout. Learn more.

Left ArrowRight Arrow

39.51506, -84.39828

Hourly Observations for November 25, 2020

Temp ( °F °C ) Dew Point ( °F °C ) Humidity (%) Winds ( mph kmh ) Pressure ( in mb ) Visibility ( mi km ) Precip ( " mm )
12:15 am 00:15 Clear 43 6 36 2 76 76 WSW 8 13 30.06 1018 10 16.0934 0 0
12:35 am 00:35 Partly Cloudy 42 5.5 35 1.9 78 78 WSW 3 6 30.07 1018 10 16.0934 0 0
12:55 am 00:55 Mostly Cloudy 42 5.6 36 2.1 78 78 Calm 30.06 1018 10 16.0934 0 0
1:15 am 01:15 Cloudy 41 4.9 36 2.4 84 84 Calm 30.06 1018 10 16.0934 0 0
1:35 am 01:35 Cloudy 40 4.6 38 3.2 91 91 Calm 30.05 1018 10 16.0934 0 0
1:55 am 01:55 Cloudy 41 4.9 39 3.7 92 92 Calm 30.05 1018 10 16.0934 0 0
2:15 am 02:15 Cloudy 41 4.8 39 3.9 94 94 Calm 30.04 1017 10 16.0934 0 0
2:35 am 02:35 Mostly Cloudy 41 4.9 40 4.2 95 95 Calm 30.05 1018 10 16.0934 0 0
2:55 am 02:55 Cloudy 42 5.3 40 4.4 94 94 Calm 30.05 1018 10 16.0934 0 0
3:15 am 03:15 Cloudy with Light Rain 42 5.5 40 4.6 94 94 W 5 7 30.05 1018 10 16.0934 0 0
3:35 am 03:35 Cloudy with Light Rain 44 6.4 40 4.3 87 87 SW 6 9 30.05 1018 10 16.0934 0 0
3:55 am 03:55 Cloudy with Light Rain 46 8 39 3.8 75 75 WSW 10 17 30.04 1017 10 16.0934 0 0
4:15 am 04:15 Cloudy with Light Rain 46 7.7 40 4.3 79 79 WSW 7 11 30.04 1017 10 16.0934 0 0
4:35 am 04:35 Cloudy with Light Rain 46 7.5 40 4.7 83 83 WSW 7 11 30.06 1018 10 16.0934 0.01 0.254
4:55 am 04:55 Cloudy with Rain 45 7.2 41 5.2 87 87 SW 7 11 30.06 1018 10 16.0934 0.04 1.016
5:15 am 05:15 Cloudy with Rain 45 7.2 42 5.5 89 89 SW 8 13 30.05 1017 7 11.26538 0.03 0.762
5:35 am 05:35 Cloudy with Light Rain 45 7.4 43 6.1 92 92 SSW 9 15 30.04 1017 5 8.0467 0.06 1.524
5:55 am 05:55 Cloudy with Rain 45 7.2 44 6.5 95 95 SSW 12 19 30.04 1017 5 8.0467 0.1 2.54
6:15 am 06:15 Cloudy with Light Rain 45 7.1 44 6.6 97 97 SSW 9 15 30.05 1017 7 11.26538 0.02 0.508
6:35 am 06:35 Cloudy with Rain 45 7.1 44 6.7 97 97 SSW 12 19 30.04 1017 7 11.26538 0.07 1.778
6:55 am 06:55 Cloudy with Rain 45 7.2 44 6.9 98 98 SSW 8 13 30.04 1017 5 8.0467 0.12 3.048
7:15 am 07:15 Cloudy with Rain 45 7.3 45 7.1 99 99 SW 10 17 30.04 1017 5 8.0467 0.04 1.016
7:35 am 07:35 Cloudy with Rain 45 7.4 45 7.2 99 99 SSW 12 19 30.03 1017 5 8.0467 0.09 2.286
7:55 am 07:55 Cloudy with Rain 46 7.5 45 7.3 99 99 SSW 10 17 30.03 1017 4 6.43736 0.17 4.318
8:15 am 08:15 Cloudy with Rain 46 7.7 46 7.5 99 99 SSW 9 15 30.02 1017 5 8.0467 0.06 1.524
8:35 am 08:35 Cloudy with Light Rain 46 7.9 46 7.7 99 99 SSW 8 13 30.01 1016 7 11.26538 0.12 3.048
8:55 am 08:55 Cloudy with Rain 47 8.2 46 7.9 98 98 SW 10 17 30 1016 5 8.0467 0.16 4.064
9:15 am 09:15 Cloudy with Rain 48 9 47 8.5 97 97 SSW 12 19 29.99 1016 7 11.26538 0.05 1.27
9:35 am 09:35 Cloudy with Light Rain 49 9.4 48 9 97 97 SSW 9 15 29.98 1015 7 11.26538 0.08 2.032
9:55 am 09:55 Cloudy with Rain 49 9.7 49 9.3 97 97 SSW 9 15 29.98 1015 5 8.0467 0.13 3.302
10:15 am 10:15 Cloudy with Rain 50 9.9 49 9.6 98 98 SSW 6 9 29.96 1015 4 6.43736 0.09 2.286
10:35 am 10:35 Cloudy with Rain 50 10.2 50 9.8 97 97 SSW 9 15 29.96 1015 7 11.26538 0.13 3.302
10:55 am 10:55 Cloudy with Rain 51 10.4 50 10 97 97 SSW 13 20 29.95 1014 5 8.0467 0.16 4.064
11:15 am 11:15 Cloudy with Rain 52 11 51 10.4 96 96 SSW 9 15 29.94 1014 5 8.0467 0.03 0.762
11:35 am 11:35 Cloudy with Rain 52 11 51 10.4 96 96 SSW 10 17 29.93 1013 5 8.0467 0.1 2.54
11:55 am 11:55 Cloudy with Light Rain 52 11.1 51 10.5 96 96 SW 12 19 29.92 1013 7 11.26538 0.14 3.556
12:15 pm 12:15 Cloudy 52 11.3 50 10.2 93 93 SSW 15 24 29.91 1013 10 16.0934 0 0
12:35 pm 12:35 Cloudy with Light Rain 52 11 51 10.5 97 97 WSW 7 11 29.91 1013 5 8.0467 0.03 0.762
12:55 pm 12:55 Cloudy with Light Rain 53 11.4 52 10.9 97 97 WSW 14 22 29.9 1012 7 11.26538 0.04 1.016
1:15 pm 13:15 Cloudy with Light Rain 53 11.4 52 10.9 97 97 SW 14 22 29.89 1012 7 11.26538 0 0
1:35 pm 13:35 Cloudy with Light Rain 53 11.6 52 11.1 97 97 SW 8 13 29.87 1012 7 11.26538 0.01 0.254
1:55 pm 13:55 Cloudy 53 11.9 52 11.3 96 96 SW 14 22 29.86 1011 10 16.0934 0.01 0.254
2:15 pm 14:15 Cloudy 54 12.3 53 11.4 94 94 SSW 15 24 29.85 1011 10 16.0934 0 0
2:35 pm 14:35 Cloudy 55 12.7 53 11.7 94 94 SSW 10 17 29.83 1010 10 16.0934 0 0
2:55 pm 14:55 Cloudy 55 12.7 53 11.7 94 94 SSW 6 9 29.83 1010 10 16.0934 0 0
3:15 pm 15:15 Cloudy 55 12.8 53 11.9 94 94 SSW 8 13 29.82 1010 10 16.0934 0 0
3:35 pm 15:35 Cloudy 55 13 54 12 94 94 SSW 10 17 29.81 1010 10 16.0934 0 0
3:55 pm 15:55 Cloudy 55 13 54 12.1 94 94 SW 9 15 29.81 1010 10 16.0934 0 0
4:35 pm 16:35 Cloudy with Light Rain 56 13.3 55 12.6 96 96 SSW 6 9 29.81 1010 10 16.0934 0 0
4:55 pm 16:55 Cloudy 56 13.4 55 12.6 95 95 WSW 9 15 29.8 1009 10 16.0934 0 0
5:15 pm 17:15 Cloudy 56 13.6 55 12.6 94 94 SSW 5 7 29.79 1009 10 16.0934 0 0
6:15 pm 18:15 Partly Cloudy 57 14 55 12.6 91 91 SSW 10 17 29.77 1008 10 16.0934 0 0
6:35 pm 18:35 Mostly Cloudy 58 14.3 55 12.8 91 91 SSW 9 15 29.77 1008 10 16.0934 0 0
7:15 pm 19:15 Cloudy 58 14.7 55 12.9 89 89 SSW 8 13 29.74 1007 10 16.0934 0 0
7:35 pm 19:35 Cloudy with Rain 59 15 56 13.1 89 89 SSW 13 20 29.74 1007 10 16.0934 0.01 0.254
7:55 pm 19:55 Cloudy with Rain 59 14.8 56 13.4 91 91 SW 14 22 29.76 1008 7 11.26538 0.06 1.524
8:15 pm 20:15 Cloudy with Light Rain 57 14.1 56 13.6 97 97 WSW 12 19 29.77 1008 10 16.0934 0.13 3.302
8:35 pm 20:35 Cloudy 57 13.9 56 13.3 96 96 WSW 10 17 29.77 1008 10 16.0934 0.13 3.302
8:55 pm 20:55 Cloudy 57 13.9 55 13 94 94 WSW 9 15 29.77 1008 10 16.0934 0.13 3.302
9:15 pm 21:15 Mostly Cloudy 56 13.6 55 12.5 93 93 WSW 14 22 29.78 1008 10 16.0934 0 0
9:35 pm 21:35 Partly Cloudy 56 13.2 53 11.8 91 91 W 13 20 29.79 1009 10 16.0934 0 0
9:55 pm 21:55 Partly Cloudy 55 13 52 11.2 89 89 W 17 28 29.8 1009 10 16.0934 0.01 0.254
10:15 pm 22:15 Partly Cloudy 55 12.8 51 10.6 87 87 W 18 30 29.81 1010 10 16.0934 0 0
10:35 pm 22:35 Mostly Cloudy 55 12.5 51 10.3 87 87 W 16 26 29.82 1010 10 16.0934 0 0
10:55 pm 22:55 Cloudy 55 12.6 50 10.1 85 85 W 14 22 29.84 1011 10 16.0934 0 0
11:15 pm 23:15 Cloudy 54 12.4 50 10.1 86 86 W 14 22 29.85 1011 10 16.0934 0 0
11:35 pm 23:35 Cloudy 54 12.3 51 10.3 88 88 W 10 17 29.85 1011 10 16.0934 0 0
11:55 pm 23:55 Cloudy 54 12.4 50 10 85 85 W 14 22 29.87 1012 10 16.0934 0 0

Powered by AerisWeather